CW6963 Weather Reports


time (UTC)temp
C
wind
direction
speed
KPH
gust
KPH
rain 1hr
cm
rain 24hr
cm
rain mn
cm
humidity
%
barometer
mb
20260510153039 19 212 3.2 11.3 0.00 0.38 0.03 78 1013.6
20260510151542 18 262 4.8 11.3 0.00 0.38 0.03 79 1013.6
20260510150046 17 245 6.4 11.3 0.00 0.38 0.03 84 1013.5
20260510144533 16 225 1.6 9.7 0.00 0.38 0.03 92 1013.4
20260510143033 15 206 0.0 9.7 0.00 0.38 0.03 96 1013.5
20260510141535 14 237 4.8 9.7 0.00 0.38 0.03 99 1013.5
20260510140044 13 266 3.2 9.7 0.00 0.38 0.03 100 1013.5
20260510134527 13 207 0.0 6.4 0.00 0.38 0.03 100 1013.4
20260510133036 12 240 1.6 6.4 0.00 0.38 0.03 100 1013.3
20260510131540 12 224 3.2 9.7 0.00 0.38 0.03 100 1013.5
20260510130040 11 159 0.0 6.4 0.00 0.38 0.03 100 1013.4
20260510124553 11 300 0.0 3.2 0.00 0.38 0.03 100 1013.5
20260510123028 11 255 4.8 8.0 0.00 0.38 0.03 100 1013.5
20260510121526 11 214 0.0 8.0 0.00 0.38 0.03 100 1013.2
20260510120033 11 227 1.6 8.0 0.00 0.38 0.03 100 1013.1
20260510114537 11 284 4.8 8.0 0.00 0.38 0.03 100 1012.7
20260510113023 10 177 0.0 8.0 0.00 0.38 0.03 100 1012.3
20260510111529 10 167 3.2 6.4 0.00 0.38 0.03 100 1012.2
20260510110032 10 167 0.0 3.2 0.00 0.38 0.03 100 1012.0
20260510104533 10 167 0.0 0.0 0.00 0.38 0.03 100 1012.1
20260510103031 10 167 0.0 3.2 0.00 0.38 0.03 100 1012.2
20260510101535 10 167 0.0 3.2 0.00 0.38 0.03 100 1012.1
20260510100032 10 167 0.0 1.6 0.00 0.38 0.03 100 1012.2
20260510094543 10 161 1.6 6.4 0.00 0.38 0.03 100 1011.8
20260510093042 10 103 0.0 0.0 0.00 0.38 0.03 100 1011.4
20260510091540 10 103 0.0 0.0 0.00 0.38 0.03 100 1011.7
20260510090039 10 145 0.0 0.0 0.00 0.38 0.03 100 1011.7
20260510084540 10 145 0.0 6.4 0.00 0.38 0.03 100 1011.7
20260510083036 10 84 0.0 1.6 0.00 0.38 0.03 100 1011.7
20260510081554 10 90 0.0 3.2 0.00 0.38 0.03 100 1011.8
20260510080040 10 338 1.6 8.0 0.00 0.38 0.03 100 1011.8
20260510074526 10 323 1.6 6.4 0.00 0.38 0.03 100 1012.0
20260510073027 9 323 3.2 8.0 0.00 0.38 0.03 100 1011.7
20260510071532 9 18 0.0 0.0 0.00 0.38 0.03 100 1011.0
20260510070037 9 18 0.0 1.6 0.00 0.38 0.03 100 1011.1
20260510064534 8 18 0.0 0.0 0.03 0.38 0.03 100 1011.1
20260510063035 8 18 0.0 0.0 0.03 0.38 0.03 100 1011.3
20260510061530 8 18 1.6 3.2 0.03 0.38 0.03 99 1011.6
20260510060026 8 158 0.0 3.2 0.03 0.38 0.03 99 1011.1
20260510054557 8 158 0.0 0.0 0.00 0.36 0.00 99 1011.1
20260510053046 8 158 0.0 0.0 0.00 0.36 0.00 100 1011.0
20260510051535 8 158 0.0 0.0 0.00 0.36 0.00 100 1011.2
20260510050052 8 158 0.0 0.0 0.00 0.36 0.00 99 1011.2
20260510044536 8 158 0.0 0.0 0.00 0.36 0.00 99 1011.3
20260510043029 8 158 0.0 0.0 0.00 0.36 0.00 99 1011.3
20260510041542 9 158 0.0 0.0 0.00 0.36 0.00 99 1011.4
20260510034544 8 158 0.0 0.0 0.00 0.36 0.36 99 1011.3
20260510033047 8 158 0.0 0.0 0.00 0.36 0.36 98 1011.3
20260510031550 8 158 0.0 0.0 0.00 0.36 0.36 98 1011.2
20260510030041 9 158 0.0 0.0 0.00 0.36 0.36 98 1011.1
20260510024603 9 158 0.0 0.0 0.00 0.36 0.36 98 1011.1
20260510023047 10 158 0.0 0.0 0.00 0.36 0.36 98 1010.9
20260510021545 10 158 0.0 0.0 0.00 0.36 0.36 97 1010.9
20260510020042 10 158 0.0 0.0 0.00 0.36 0.36 97 1010.8
20260510014547 10 158 0.0 0.0 0.00 0.36 0.36 97 1010.9
20260510013057 11 158 0.0 0.0 0.00 0.36 0.36 97 1010.8
20260510011529 11 158 0.0 0.0 0.00 0.36 0.36 96 1010.7
20260510010027 11 158 0.0 0.0 0.00 0.36 0.36 96 1010.5
20260510004528 12 158 0.0 3.2 0.00 0.36 0.36 96 1010.3
20260510003029 12 158 0.0 6.4 0.00 0.36 0.36 96 1010.2
20260510001535 12 140 1.6 8.0 0.00 0.36 0.36 95 1010.0
20260510000034 13 169 0.0 3.2 0.00 0.36 0.36 94 1009.9
20260509234534 13 155 4.8 9.7 0.00 0.36 0.36 93 1009.9
20260509233030 13 154 1.6 4.8 0.00 0.36 0.36 93 1010.0
20260509231538 13 154 1.6 6.4 0.00 0.36 0.36 91 1010.0
20260509230040 14 178 1.6 8.0 0.00 0.36 0.36 90 1009.9
20260509224545 14 153 4.8 9.7 0.00 0.36 0.36 89 1009.8
20260509223046 15 164 3.2 8.0 0.00 0.36 0.36 88 1009.9
20260509221533 15 92 0.0 3.2 0.00 0.36 0.36 90 1009.9
20260509220032 14 137 0.0 6.4 0.00 0.36 0.36 89 1009.9
20260509214534 14 155 0.0 6.4 0.00 0.36 0.36 91 1009.7
20260509213036 14 5 0.0 3.2 0.00 0.36 0.36 90 1009.7
20260509211526 13 317 0.0 6.4 0.00 0.36 0.36 91 1010.0
20260509210033 13 352 3.2 9.7 0.00 0.36 0.36 91 1010.1
20260509204533 13 360 1.6 6.4 0.03 0.36 0.36 92 1010.3
20260509203034 13 300 0.0 3.2 0.03 0.36 0.36 94 1010.2
20260509201542 12 263 0.0 1.6 0.03 0.36 0.36 94 1010.1
20260509200049 12 263 0.0 3.2 0.03 0.36 0.36 95 1010.3
20260509194532 12 314 0.0 0.0 0.05 0.33 0.33 94 1010.4
20260509193030 12 314 0.0 0.0 0.15 0.33 0.33 95 1010.7
20260509191537 12 314 0.0 3.2 0.15 0.33 0.33 95 1011.0
20260509190045 12 314 0.0 0.0 0.20 0.33 0.33 95 1011.3
20260509184540 12 314 1.6 8.0 0.20 0.28 0.28 95 1011.7
20260509183038 12 303 0.0 8.0 0.10 0.18 0.18 95 1011.7
20260509181543 12 310 0.0 6.4 0.10 0.18 0.18 94 1011.7
20260509180044 12 296 1.6 9.7 0.08 0.13 0.13 92 1011.8
20260509174528 13 272 0.0 3.2 0.05 0.08 0.08 91 1011.7
20260509173113 13 10 0.0 3.2 0.08 0.08 0.08 92 1011.6
20260509171547 13 345 0.0 3.2 0.08 0.08 0.08 91 1011.6
20260509170027 13 345 0.0 3.2 0.05 0.05 0.05 91 1011.2
20260509164533 13 307 0.0 3.2 0.03 0.03 0.03 91 1011.5
20260509163030 13 283 3.2 11.3 0.00 0.00 0.00 89 1011.5
20260509161539 13 340 3.2 11.3 0.00 0.00 0.00 88 1011.8
20260509160045 13 232 4.8 14.5 0.00 0.00 0.00 87 1012.0
20260509154542 14 204 1.6 11.3 0.00 0.00 0.00 87 1012.1